• In Uzbekistan
  • List of Countries
  • For 7 days
  • Water Temperature
  • Satellite Maps
  • Weather Map
  • Weather Widgets
  • user-avatar
    Login

    Hourly Weather Bagikla

    Today, 18 October, Thursday

    Time Temperature Precipitation Wind Pressure Humidity
    00:00 +9°C° 0 mm 1 mps 645 mmHg 61%
    01:00 +9°C° 0 mm 1 mps 645 mmHg 58%
    02:00 +9°C° 0 mm 1 mps 645 mmHg 55%
    03:00 +9°C° 0 mm 1 mps 645 mmHg 53%
    04:00 +8°C° 0 mm 1 mps 645 mmHg 49%
    05:00 +8°C° 0 mm 1 mps 644 mmHg 44%
    06:00 +8°C° 0 mm 1 mps 644 mmHg 40%
    07:00 +10°C° 0 mm 1 mps 645 mmHg 37%
    08:00 +13°C° 0 mm 1 mps 646 mmHg 34%
    09:00 +15°C° 0 mm 1 mps 647 mmHg 32%
    10:00 +16°C° 0 mm 1 mps 647 mmHg 33%
    11:00 +16°C° 0 mm 2 mps 647 mmHg 34%
    12:00 +17°C° 0 mm 2 mps 647 mmHg 35%
    13:00 +17°C° 0 mm 2 mps 647 mmHg 40%
    14:00 +16°C° 0 mm 2 mps 647 mmHg 45%
    15:00 +16°C° 0 mm 2 mps 646 mmHg 50%
    16:00 +14°C° 0 mm 2 mps 646 mmHg 61%
    17:00 +12°C° 0 mm 1 mps 645 mmHg 71%
    18:00 +11°C° 0 mm 1 mps 645 mmHg 82%
    19:00 +10°C° 0 mm 1 mps 645 mmHg 78%
    20:00 +10°C° 0 mm 1 mps 645 mmHg 74%
    21:00 +10°C° 0 mm 1 mps 645 mmHg 70%
    22:00 +10°C° 0 mm 1 mps 645 mmHg 65%
    23:00 +9°C° 0 mm 1 mps 645 mmHg 60%

    Tomorrow, 19 October, Friday

    Time Temperature Precipitation Wind Pressure Humidity
    00:00 +9°C° 0 mm 1 mps 645 mmHg 55%
    01:00 +8°C° 0 mm 2 mps 645 mmHg 53%
    02:00 +8°C° 0 mm 2 mps 644 mmHg 50%
    03:00 +8°C° 0 mm 2 mps 644 mmHg 47%
    04:00 +8°C° 0 mm 2 mps 644 mmHg 45%
    05:00 +8°C° 0 mm 2 mps 644 mmHg 43%
    06:00 +7°C° 0 mm 2 mps 644 mmHg 41%
    07:00 +10°C° 0 mm 2 mps 645 mmHg 37%
    08:00 +13°C° 0 mm 1 mps 646 mmHg 32%
    09:00 +15°C° 0 mm 1 mps 646 mmHg 28%
    10:00 +16°C° 0 mm 1 mps 646 mmHg 29%
    11:00 +17°C° 0 mm 2 mps 647 mmHg 29%
    12:00 +18°C° 0 mm 2 mps 647 mmHg 30%
    13:00 +18°C° 0 mm 2 mps 646 mmHg 34%
    14:00 +17°C° 0 mm 2 mps 646 mmHg 38%
    15:00 +17°C° 0 mm 2 mps 646 mmHg 43%
    16:00 +15°C° 0 mm 2 mps 645 mmHg 53%
    17:00 +13°C° 0 mm 2 mps 644 mmHg 64%
    18:00 +11°C° 0 mm 1 mps 644 mmHg 74%
    19:00 +11°C° 0 mm 1 mps 644 mmHg 72%
    20:00 +10°C° 0 mm 2 mps 644 mmHg 70%
    21:00 +9°C° 0 mm 2 mps 644 mmHg 69%
    22:00 +9°C° 0 mm 2 mps 643 mmHg 68%
    23:00 +9°C° 0 mm 2 mps 643 mmHg 67%

    Day after tomorrow, 20 October, Saturday

    Time Temperature Precipitation Wind Pressure Humidity
    00:00 +9°C° 0 mm 2 mps 643 mmHg 67%
    01:00 +9°C° 0 mm 2 mps 643 mmHg 66%
    02:00 +9°C° 0 mm 2 mps 642 mmHg 66%
    03:00 +9°C° 0 mm 2 mps 642 mmHg 66%
    04:00 +8°C° 0 mm 2 mps 642 mmHg 63%
    05:00 +8°C° 0 mm 2 mps 642 mmHg 61%
    06:00 +8°C° 0 mm 2 mps 642 mmHg 59%
    07:00 +10°C° 0 mm 2 mps 643 mmHg 50%
    08:00 +14°C° 0 mm 1 mps 643 mmHg 42%
    09:00 +16°C° 0 mm 1 mps 644 mmHg 34%
    10:00 +18°C° 0 mm 1 mps 644 mmHg 33%
    11:00 +18°C° 0 mm 2 mps 644 mmHg 33%
    12:00 +18°C° 0 mm 2 mps 644 mmHg 32%
    13:00 +18°C° 0 mm 2 mps 644 mmHg 36%
    14:00 +18°C° 0 mm 2 mps 643 mmHg 39%
    15:00 +18°C° 0 mm 2 mps 643 mmHg 42%
    16:00 +16°C° 0 mm 1 mps 643 mmHg 50%
    17:00 +14°C° 0 mm 1 mps 642 mmHg 58%
    18:00 +12°C° 0 mm 1 mps 642 mmHg 66%
    19:00 +12°C° 0 mm 1 mps 642 mmHg 64%
    20:00 +12°C° 0 mm 1 mps 642 mmHg 62%
    21:00 +11°C° 0 mm 1 mps 642 mmHg 59%
    22:00 +11°C° 0 mm 1 mps 641 mmHg 58%
    23:00 +11°C° 0 mm 1 mps 641 mmHg 56%

    21 October, Sunday

    Time Temperature Precipitation Wind Pressure Humidity
    00:00 +10°C° 0 mm 2 mps 641 mmHg 54%
    01:00 +10°C° 0 mm 2 mps 641 mmHg 53%
    02:00 +10°C° 0 mm 2 mps 641 mmHg 53%
    03:00 +9°C° 0 mm 2 mps 641 mmHg 52%
    04:00 +9°C° 0 mm 2 mps 641 mmHg 50%
    05:00 +9°C° 0 mm 2 mps 641 mmHg 49%
    06:00 +9°C° 0 mm 2 mps 640 mmHg 47%
    07:00 +12°C° 0 mm 1 mps 641 mmHg 44%
    08:00 +14°C° 0 mm 1 mps 642 mmHg 40%
    09:00 +16°C° 0 mm 1 mps 643 mmHg 37%
    10:00 +18°C° 0 mm 1 mps 642 mmHg 38%
    11:00 +18°C° 0 mm 2 mps 642 mmHg 38%
    12:00 +18°C° 0 mm 2 mps 642 mmHg 39%
    13:00 +18°C° 0 mm 2 mps 642 mmHg 41%
    14:00 +18°C° 0 mm 2 mps 642 mmHg 44%
    15:00 +17°C° 0 mm 2 mps 641 mmHg 47%
    16:00 +16°C° 0 mm 1 mps 641 mmHg 55%
    17:00 +14°C° 0 mm 1 mps 640 mmHg 63%
    18:00 +12°C° 0 mm 1 mps 640 mmHg 71%
    19:00 +12°C° 0 mm 1 mps 640 mmHg 69%
    20:00 +12°C° 0 mm 1 mps 640 mmHg 67%
    21:00 +12°C° 0 mm 1 mps 640 mmHg 65%
    22:00 +12°C° 0.1 mm 1 mps 640 mmHg 64%
    23:00 +12°C° 0.1 mm 1 mps 640 mmHg 63%

    22 October, Monday

    Time Temperature Precipitation Wind Pressure Humidity
    00:00 +12°C° 0.1 mm 1 mps 640 mmHg 61%
    01:00 +12°C° 0.1 mm 1 mps 639 mmHg 61%
    02:00 +12°C° 0.1 mm 1 mps 639 mmHg 61%
    03:00 +12°C° 0.1 mm 1 mps 639 mmHg 61%
    04:00 +11°C° 0 mm 1 mps 639 mmHg 62%
    05:00 +11°C° 0 mm 1 mps 639 mmHg 63%
    06:00 +11°C° 0 mm 1 mps 639 mmHg 64%
    07:00 +12°C° 0 mm 1 mps 640 mmHg 60%
    08:00 +14°C° 0 mm 1 mps 640 mmHg 56%
    09:00 +15°C° 0 mm 1 mps 641 mmHg 52%
    10:00 +16°C° 0 mm 1 mps 641 mmHg 50%
    11:00 +17°C° 0 mm 2 mps 641 mmHg 49%
    12:00 +18°C° 0 mm 2 mps 641 mmHg 48%
    13:00 +17°C° 0 mm 2 mps 641 mmHg 51%
    14:00 +17°C° 0 mm 2 mps 641 mmHg 53%
    15:00 +17°C° 0 mm 2 mps 641 mmHg 56%
    16:00 +15°C° 0 mm 2 mps 641 mmHg 65%
    17:00 +13°C° 0 mm 1 mps 640 mmHg 73%
    18:00 +12°C° 0 mm 1 mps 640 mmHg 81%
    19:00 +12°C° 0 mm 1 mps 640 mmHg 80%
    20:00 +12°C° 0 mm 1 mps 640 mmHg 79%
    21:00 +11°C° 0 mm 1 mps 641 mmHg 78%
    22:00 +11°C° 0 mm 1 mps 640 mmHg 77%
    23:00 +11°C° 0 mm 1 mps 640 mmHg 76%

    23 October, Tuesday

    Time Temperature Precipitation Wind Pressure Humidity
    00:00 +10°C° 0 mm 2 mps 640 mmHg 75%
    01:00 +9°C° 0 mm 2 mps 640 mmHg 74%
    02:00 +9°C° 0 mm 2 mps 640 mmHg 73%
    03:00 +9°C° 0 mm 2 mps 640 mmHg 72%
    04:00 +9°C° 0 mm 2 mps 640 mmHg 72%
    05:00 +9°C° 0 mm 2 mps 640 mmHg 71%
    06:00 +9°C° 0 mm 2 mps 640 mmHg 70%
    07:00 +12°C° 0 mm 2 mps 641 mmHg 63%
    08:00 +14°C° 0 mm 1 mps 642 mmHg 57%
    09:00 +16°C° 0 mm 1 mps 642 mmHg 50%
    10:00 +17°C° 0 mm 2 mps 642 mmHg 47%
    11:00 +18°C° 0 mm 2 mps 643 mmHg 44%
    12:00 +19°C° 0 mm 2 mps 643 mmHg 41%
    13:00 +18°C° 0 mm 2 mps 642 mmHg 41%
    14:00 +18°C° 0 mm 2 mps 642 mmHg 42%
    15:00 +18°C° 0 mm 2 mps 642 mmHg 42%
    16:00 +16°C° 0 mm 2 mps 641 mmHg 49%
    17:00 +15°C° 0 mm 2 mps 641 mmHg 55%
    18:00 +13°C° 0 mm 2 mps 640 mmHg 62%
    19:00 +13°C° 0 mm 2 mps 640 mmHg 62%
    20:00 +11°C° 0 mm 3 mps 640 mmHg 62%
    21:00 +11°C° 0 mm 3 mps 640 mmHg 62%
    22:00 +11°C° 0 mm 3 mps 640 mmHg 62%
    23:00 +11°C° 0 mm 3 mps 639 mmHg 62%
    Show more